ワイズ彗星

412P/WISE (2015)

English version
Home page
Updated on February 17, 2021

---------------------------------------------------------------------

・ プロフィール

・ 軌道要素

Epoch 2015 June 27.0 TT = JDT 2457200.5                                         
T 2015 June 13.85685 TT                                 Bell                    
q   1.6119970            (2000.0)            P               Q                  
n   0.17993294     Peri.  155.95217     -0.91909910     -0.39401967             
a   3.1073888      Node     0.85327     +0.33162855     -0.77670881             
e   0.4812374      Incl.    8.93870     +0.21278947     -0.49139794             
P   5.48                                                                        
From 58 observations 2010 Jan. 22-2020 Dec. 20, mean residual 0".6.             

・ 光度変化

        m1 = 17.0 + 5 logΔ + 10.0 log r

---------------------------------------------------------------------

軌道要素はM.P.E.C. 2021-A76に掲載されたものです。
光度グラフはComet for Windowsで作成したものです。

---------------------------------------------------------------------

Copyright(C) Seiichi Yoshida (comet@aerith.net). All rights reserved.